Location: Melbourne
(37.8666°S, 145.1333°E)
Time: 22:23:00
(UTC+10:00)

HST - Visible Passes

Search period start: 23 September 2014 00:00
Search period end: 03 October 2014 00:00
Orbit: 547 x 551 km, 28.5° (Epoch: 22 September)

Date Brightness Start Highest point End Pass type
(mag) Time Alt. Az. Time Alt. Az. Time Alt. Az.
30 Sep 3.0 20:02:55 10° NNW 20:04:04 14° N 20:04:04 14° N visible
01 Oct 2.7 19:55:22 10° NNW 19:57:42 17° N 19:57:42 17° N visible
02 Oct 2.4 19:47:57 10° NW 19:51:01 20° N 19:51:14 20° NNE visible
